{"data":{"norad_id":60089,"epoch":"2026-05-25T00:25:56.216928Z","epoch_age_seconds":70121,"freshness":"FRESH","line1":"1 60089U 24116B   26145.01801177  .00001164  00000+0  12336-3 0  9999","line2":"2 60089  28.9960 263.9212 0005132 158.8378 201.2428 14.83482510104151","mean_motion":14.8348251,"eccentricity":0.0005132,"inclination_deg":28.996,"raan_deg":263.9212,"arg_perigee_deg":158.8378,"mean_anomaly_deg":201.2428,"bstar":0.00012336,"rev_number":10415,"period_min":97.068889608951,"perigee_km":614.76245449121,"apogee_km":621.9436518818,"semimajor_km":6996.4900531865,"source":"CELESTRAK","updated_at":"2026-05-25T13:38:01.828915Z"}}